Location: La Ronge
(55.1000°N, 105.3000°W)
Time: 18:12:05
(UTC-06:00)

Daily predictions for brighter satellites

Satellite Brightness Start Highest point End
(mag) Time Altitude Azimuth Time Altitude Azimuth Time Altitude Azimuth
In-Cosmos 22 4.4 19:47:49 10° N 19:53:04 48° ENE 19:58:11 10° SE
Cosmos 1821 Rocket 4.2 19:48:59 10° SSE 19:55:08 51° E 20:01:14 10° NNE
Cosmos 1939 Rocket 4.1 19:52:15 10° ESE 19:55:41 26° ENE 19:59:10 10° N
Resurs 01 Rocket 1.6 19:54:28 10° SSE 19:58:53 82° ENE 20:03:21 10° NNW
GP-B 4.4 19:56:07 10° ESE 19:59:33 22° ENE 20:02:59 10° NNE
Cosmos 1953 4.1 19:58:01 10° ESE 20:00:18 15° E 20:02:35 10° NE
Cosmos 1844 Rocket 3.1 19:55:30 10° S 20:00:43 40° ESE 20:05:56 10° NE
FengYun 1-2 T 4.5 19:55:54 10° SSE 20:01:30 80° WSW 20:07:11 10° NNW
Cosmos 1833 Rocket 3.2 19:57:25 10° NNW 20:02:48 43° NE 20:08:09 10° ESE
Cosmos 1378 3.2 19:59:16 10° NNW 20:03:05 89° E 20:06:51 10° S
FREGAT/IRIS 4.4 20:00:22 10° SSW 20:03:16 37° W 20:06:11 10° NNW
Cosmos 1812 Rocket 3.9 20:00:09 10° SSE 20:04:19 42° E 20:08:28 10° NNE
Cosmos 2278 Rocket 3.3 20:03:29 10° SSE 20:07:48 23° ESE 20:12:07 10° NE
Meteor 1-24 Rocket 3.7 20:04:49 10° NNW 20:10:14 88° ENE 20:15:48 10° SSE
Cosmos 1707 3.7 20:06:58 10° NNW 20:10:48 52° W 20:14:35 10° S
Spot 1 4.4 20:06:43 10° SSE 20:11:19 65° ENE 20:16:14 10° NNW
YAOGAN 6 4.2 20:09:30 10° ESE 20:12:14 20° ENE 20:15:03 10° NNE
Meteor 2-5 Rocket 4.4 20:07:04 10° NNW 20:12:39 61° W 20:18:19 10° S
Cosmos 1766 Rocket 4.5 20:08:48 10° N 20:12:48 31° ENE 20:16:47 10° SE
H-2A R/B 3.0 20:08:58 10° S 20:12:52 76° WSW 20:16:50 10° NNW
Cosmos 1605 Rocket 4.4 20:07:14 10° SSE 20:13:02 41° E 20:18:55 10° NNE
NOSS 2-1 (D) 4.1 20:09:48 10° WSW 20:13:51 65° NNW 20:18:57 10° NE
NOSS 2-1 (C) 4.0 20:10:10 10° WSW 20:14:13 66° NNW 20:19:19 10° NE
NOSS 7 (H) 4.5 20:11:24 10° SW 20:14:44 90° NNE 20:18:34 10° NE
Lacrosse 5 rocket 1.3 20:11:54 10° WNW 20:16:00 75° N 20:19:28 13° E
SAR-Lupe-4 3.5 20:12:49 10° SSE 20:16:24 69° ENE 20:19:59 10° NNW
RESURS DK-1 2.7 20:12:44 10° NW 20:16:52 68° WSW 20:20:59 10° SSE
Cosmos 2123 Rocket 4.0 20:10:47 10° N 20:17:10 79° ENE 20:23:29 10° SSE
Cosmos 2150 Rocket 4.2 20:13:50 10° S 20:18:43 46° ESE 20:23:39 10° NE
Cosmos 1076 Rocket 3.9 20:15:17 10° N 20:19:22 42° ENE 20:23:24 10° SE
Spot 2 Rocket 3.8 20:15:21 10° S 20:20:28 73° WSW 20:25:37 10° NNW
H-2A R/B 3.8 20:17:14 10° E 20:20:34 17° NE 20:23:52 10° N
Cosmos 2228 3.6 20:17:29 10° SSW 20:21:41 61° WNW 20:25:56 10° N
Cosmos 2263 Rocket 3.1 20:20:09 10° SW 20:25:39 52° NW 20:31:11 10° NNE
USA 215 4.2 20:21:29 10° ENE 20:26:42 25° SE 20:31:54 10° S
Cosmos 158 Rocket 4.3 20:21:50 10° NNW 20:26:43 48° NE 20:31:11 13° SE
Timation 2 Rocket 4.2 20:22:36 10° NW 20:29:05 61° NE 20:34:37 13° SE
Cosmos 1766 3.3 20:25:47 10° S 20:29:34 53° E 20:33:23 10° NNE
Cosmos 2082 Rocket 2.3 20:24:24 10° NNW 20:30:07 63° NE 20:35:17 12° SE
Cosmos 2084 Rocket 3.3 20:26:58 10° SSW 20:30:52 54° SE 20:34:37 10° ENE
Terra 3.9 20:30:27 10° ENE 20:32:11 12° NE 20:33:55 10° NNE
Cosmos 1898 Rocket 3.5 20:29:08 10° SSW 20:34:25 72° ESE 20:39:42 10° NNE
NOSS 2-1 (E) 4.4 20:31:26 10° WSW 20:35:34 56° NNW 20:40:50 10° NE
SAR-Lupe-1 4.1 20:32:08 10° SSE 20:35:43 86° WSW 20:39:21 10° NNW
Envisat 3.0 20:33:11 10° SSE 20:38:15 70° ENE 20:43:20 10° NNW
Cosmos 990 Rocket 4.1 20:33:27 10° S 20:38:31 51° ESE 20:43:36 10° NE
Cosmos 1048 Rocket 4.0 20:35:22 10° NNW 20:40:32 68° ENE 20:45:00 14° SE
Cosmos 1271 Rocket 4.4 20:41:32 17° E 20:41:37 17° E 20:44:15 10° NE
Helios 1B rocket 2.7 20:38:47 10° NNE 20:42:48 47° E 20:46:48 10° S
Cosmos 1125 Rocket 4.5 20:39:09 10° SSE 20:43:14 24° E 20:47:21 10° NE
Cosmos 1544 3.5 20:40:40 10° SSE 20:44:05 39° E 20:47:33 10° NNE
Meteor 1-4 Rocket 3.4 20:42:30 17° SE 20:44:20 27° E 20:47:21 10° NE
Cosmos 1743 Rocket 4.5 20:41:03 10° N 20:45:00 31° ENE 20:47:13 20° ESE
Geosat 4.0 20:41:18 10° NE 20:46:17 57° ESE 20:51:13 10° SSW
Meteor 1-21 Rocket 4.3 20:41:00 10° NNW 20:46:47 73° ENE 20:52:38 10° SSE
Helios 1A 3.3 20:43:33 10° S 20:47:41 66° WSW 20:51:54 10° NNW
SJ-11-01 4.2 20:43:13 10° SSE 20:47:58 78° ENE 20:52:43 10° NNW
Cosmos-2242 4.1 20:47:04 20° ESE 20:48:34 25° E 20:52:03 10° NNE
Cosmos 1818 3.8 20:46:37 10° NW 20:52:04 69° SW 20:56:37 15° SSE
SL-27 R/B 4.3 20:49:35 10° NW 20:52:46 32° WSW 20:56:00 10° S
COSMOS 2487 2.5 20:49:44 10° NNW 20:53:20 66° ENE 20:55:21 24° SE
Meteor 1-29 3.1 20:50:41 10° NNE 20:54:04 47° E 20:57:26 10° S
H-2A R/B 3.7 20:53:40 16° ENE 20:54:45 17° NE 20:57:25 10° NNE
Cosmos 1447 Rocket 4.4 20:51:05 10° N 20:57:17 87° E 21:03:26 10° S
Cosmos 1844 3.7 20:52:13 10° SSW 20:57:58 72° ESE 21:03:47 10° NE
Cosmos 1900 4.5 20:56:18 10° SW 21:01:12 77° NW 21:06:12 10° NE
Lacrosse 4 Rocket 1.2 20:57:11 10° SSW 21:01:14 72° SE 21:05:18 10° NE
Cosmos 1184 Rocket 3.9 20:58:42 10° N 21:01:45 29° ENE 21:02:13 28° E
Cosmos 2251 Rocket 4.1 20:57:28 10° NNW 21:02:32 42° NE 21:05:14 24° ESE
SPOT 1/Viking Rocket 4.4 21:00:57 22° ESE 21:03:24 34° ENE 21:08:04 10° N
USA 267 3.3 20:59:17 20° ESE 21:04:06 74° SSW 21:10:41 10° WNW
USA 186 3.6 21:04:02 10° SSW 21:05:54 21° W 21:07:44 10° NW
Cosmos 1340 Rocket 3.0 21:02:05 10° N 21:06:07 55° ENE 21:07:59 28° SE
Cosmos 1674 2.5 21:03:02 10° N 21:06:49 79° ENE 21:09:12 22° SSE
ERS-1 Rocket 2.9 21:03:34 16° SSE 21:07:34 74° ENE 21:12:36 10° NNW
Cosmos 1805 3.1 21:03:54 10° S 21:07:47 72° E 21:11:43 10° NNE
Okean 3 Rocket 4.4 21:04:21 10° NNW 21:08:37 51° W 21:12:52 10° S
Cosmos 1937 Rocket 3.5 21:03:35 10° SSW 21:08:52 86° WNW 21:14:13 10° NNE
CZ-4B DEB 3.8 21:06:03 10° S 21:09:02 43° W 21:12:03 10° NNW
Cosmos 1437 Rocket 4.0 21:05:20 10° SW 21:09:14 46° WNW 21:13:12 10° N
Cosmos 1408 Rocket 3.5 21:05:15 10° N 21:09:45 86° ENE 21:13:19 16° SSE
Cosmos 1269 Rocket 4.1 21:04:30 10° NNW 21:09:49 78° WSW 21:14:00 17° SSE
ARGOS 3.6 21:07:07 24° ESE 21:09:56 45° ENE 21:15:01 10° N
Cosmos 2298 Rocket 4.3 21:06:41 10° SW 21:12:00 72° WNW 21:17:21 10° NNE
Cosmos 1459 Rocket 4.2 21:08:25 11° SSE 21:14:12 47° E 21:20:05 10° NNE
Cosmos 2173 Rocket 4.2 21:09:46 13° SSE 21:15:05 47° E 21:21:03 10° NNE
Cosmos 2098 Rocket 4.4 21:08:09 10° S 21:15:22 74° E 21:22:58 10° NNE
YAOGAN 11 4.2 21:13:17 27° SE 21:15:40 62° ENE 21:20:12 10° N
MetOp-A 4.2 21:14:22 24° SE 21:17:38 65° ENE 21:22:57 10° NNW
Cosmos 1470 3.2 21:19:09 38° ESE 21:19:46 41° E 21:23:32 10° NNE
Cosmos 1758 3.2 21:21:06 10° S 21:25:06 90° W 21:29:08 10° NNE
Lacrosse 5 2.4 21:22:33 10° SSW 21:27:06 34° SE 21:27:17 34° SE
CZ-3B DEB 2.3 21:19:10 10° SW 21:27:12 47° SSE 21:28:42 35° ESE
Cosmos 1939 Rocket 3.8 21:26:40 11° S 21:30:26 48° W 21:34:30 10° NNW
SPOT 5 3.1 21:28:32 30° SE 21:31:12 68° ENE 21:36:32 10° NNW
Resurs 01 Rocket 4.5 21:33:11 10° SW 21:35:58 16° W 21:38:46 10° NW
Cosmos 1953 2.4 21:32:06 10° SSW 21:36:11 77° WNW 21:40:17 10° N
GP-B 3.7 21:32:08 10° SSW 21:36:31 57° W 21:40:56 10° N
Cosmos 2227 Rocket 4.5 21:33:17 10° NNW 21:36:51 17° N 21:40:25 10° NE
SL-08 RB Rocket 4.0 21:35:39 41° ESE 21:36:53 54° ENE 21:41:28 10° N
Cosmos 2344 3.7 21:29:34 10° SW 21:37:19 77° SE 21:46:48 10° NE
Cosmos 1328 3.7 21:34:15 10° N 21:38:15 67° ENE 21:38:53 56° SE
SL-14 R/B 3.1 21:40:28 10° N 21:44:19 68° ENE 21:44:35 65° ESE
Cosmos 1844 Rocket 3.5 21:39:00 10° SW 21:44:32 53° NW 21:50:04 10° NNE
YAOGAN 6 3.3 21:43:57 30° SSW 21:45:30 52° W 21:49:12 10° NNW
Cosmos 2016 Rocket 4.0 21:42:53 29° SSE 21:45:59 56° E 21:51:59 10° NNE
Cosmos 1833 Rocket 3.3 21:41:27 10° NW 21:46:54 51° WSW 21:50:13 23° S
Meteor 1-11 4.1 21:41:23 10° NNW 21:47:00 70° ENE 21:49:00 40° SE
Cosmos 1356 Rocket 3.3 21:43:26 10° NNW 21:47:40 75° ENE 21:48:14 62° SE
Cosmos 1733 3.0 21:49:22 70° SSE 21:49:41 77° E 21:53:36 10° NNE
NOAA 11 4.2 21:48:10 30° SSE 21:50:59 83° WSW 21:56:33 10° NNW
Cosmos 1725 Rocket 4.3 21:49:46 39° SE 21:51:13 45° E 21:57:04 10° NNE
Cosmos 2278 Rocket 2.2 21:45:33 10° SW 21:51:15 85° NW 21:57:00 10° NNE
Tsikada Rocket 3.9 21:46:01 10° N 21:52:11 67° ENE 21:54:32 39° SE
Landsat 7 4.1 21:53:00 46° E 21:53:38 50° ENE 21:58:15 10° N
Cosmos 1626 3.4 21:50:39 10° N 21:53:17 30° NE 21:53:17 30° NE
Lacrosse 5 rocket 1.8 21:51:19 10° WNW 21:55:07 44° SW 21:55:11 44° SSW
Cosmos 2100 Rocket 4.0 21:50:02 10° S 21:56:22 88° ESE 22:02:48 10° NNE
CARTOSAT-1 4.3 21:58:53 38° ENE 21:58:53 38° ENE 22:02:46 10° N
Cosmos 2151 2.8 21:54:44 10° N 21:59:03 76° ENE 21:59:22 71° ESE
Cosmos 372 Rocket 3.8 21:57:10 37° S 21:59:06 64° ESE 22:04:14 10° NNE
H-2A R/B 2.1 21:57:47 48° SE 21:59:08 65° ENE 22:04:25 10° NNW
Cosmos 2297 3.6 21:56:46 10° SSW 22:02:26 66° ESE 22:08:09 10° NE
ATLAS CENTAUR R/B 4.0 22:01:28 10° WNW 22:01:31 10° WNW 22:01:31 10° WNW
USA 245 4.2 22:04:29 43° SSE 22:06:24 87° WSW 22:12:27 10° NNW
Cosmos 1633 Rocket 4.3 22:04:36 10° N 22:07:55 29° NE 22:07:55 29° NE
Terra 2.1 22:08:46 49° ENE 22:08:55 49° ENE 22:13:32 10° N
Sich 1 4.1 22:05:49 10° N 22:09:13 32° NE 22:09:13 32° NE
Cosmos 2084 Rocket 4.4 22:06:45 10° W 22:10:28 40° NNW 22:12:21 23° NNE
USA 215 3.2 22:05:19 16° ENE 22:10:39 61° SSE 22:17:07 10° SW
Meteor 2-17 Rocket 4.3 22:08:16 34° S 22:11:08 77° E 22:17:18 10° NNE
Cosmos 1802 Rocket 3.9 22:08:22 22° S 22:12:35 88° W 22:18:49 10° N
Cosmos 494 Rocket 4.0 22:08:25 10° NNW 22:13:33 71° WSW 22:14:38 53° S
Cosmos 2082 Rocket 3.6 22:08:55 10° NW 22:13:55 32° WSW 22:17:10 18° SSW
Cosmos 2058 2.9 22:11:02 10° NNW 22:15:06 82° N 22:15:06 82° N
Cosmos 1271 Rocket 3.1 22:16:40 57° WSW 22:17:12 65° WNW 22:21:15 10° N
Timation 1 Rocket 4.2 22:11:48 10° SSW 22:17:49 87° ESE 22:23:54 10° NE
Cosmos 1703 3.8 22:14:52 10° N 22:18:02 52° NNE 22:18:02 52° NNE
Cosmos 2061 Rocket 4.1 22:13:20 14° SSW 22:18:59 77° WNW 22:25:29 10° N
Meteor 1-4 Rocket 4.4 22:16:42 12° SW 22:19:28 29° WNW 22:22:35 10° N
Meteor 1-16 Rocket 4.2 22:20:30 51° S 22:21:59 75° E 22:27:57 10° NNE
Cosmos 1125 Rocket 3.7 22:19:39 10° SW 22:24:51 71° WNW 22:30:07 10° NNE
Cosmos-2242 3.9 22:23:52 26° SW 22:25:56 46° WNW 22:30:05 10° N
Cosmos 1500 Rocket 4.3 22:22:06 10° NNW 22:26:17 47° W 22:26:59 43° SW
Cosmos 1805 Rocket 3.9 22:24:45 10° N 22:28:32 59° NNE 22:28:32 59° NNE
H-2A R/B 2.2 22:30:47 67° NNW 22:30:47 67° NNW 22:34:25 10° NNW
Cosmos 1816 Rocket 4.5 22:29:32 10° NNW 22:35:42 79° W 22:37:18 52° S
Cosmos 2346 Rocket 4.3 22:30:07 10° N 22:36:20 84° E 22:37:25 63° SSE
Lacrosse 4 Rocket 3.4 22:36:50 10° W 22:40:20 27° NNW 22:43:52 10° NNE
SPOT 1/Viking Rocket 4.1 22:41:35 44° SW 22:42:39 52° W 22:47:46 10° NNW
Cosmos 2221 3.8 22:44:47 32° NNE 22:44:47 32° NNE 22:47:17 10° NNE
Cosmos 2251 Rocket 4.3 22:39:52 10° NW 22:44:54 44° WSW 22:45:45 41° SW
USA 267 4.2 22:46:37 31° SSW 22:47:50 33° SW 22:53:39 10° WNW
ARGOS 4.2 22:48:37 31° SW 22:50:17 39° W 22:55:19 10° NNW
Cosmos 2297 Rocket 4.1 22:52:54 10° NNW 22:57:14 22° NNE 22:59:36 17° NE
Cosmos 1833 4.2 22:53:16 10° NNW 22:58:48 69° NE 22:58:48 69° NE
Cosmos 2233 Rocket 3.8 23:02:29 81° SSE 23:02:46 84° E 23:08:57 10° NNE
DMSP B5D2-2 4.5 22:58:22 10° NNE 23:02:25 53° NE 23:02:25 53° NE
Nadezhda 4 Rocket 4.4 23:00:45 10° N 23:06:25 46° ENE 23:06:25 46° ENE
Lacrosse 5 3.5 23:04:39 10° WSW 23:06:35 24° WSW 23:06:35 24° WSW
SL-24 R/B - RUBIN 2 4.4 23:09:19 10° NW 23:15:44 68° NE 23:15:52 68° NE
Cosmos 1867 4.3 23:18:04 45° NE 23:18:04 45° NE 23:21:53 10° NE
Cosmos 2369 Rocket 3.7 23:19:35 24° NE 23:19:35 24° NE 23:21:53 10° NE
Cosmos 407 Rocket 4.0 23:14:21 10° NNW 23:18:53 53° NNE 23:18:53 53° NNE
Cosmos 2227 Rocket 3.6 23:17:57 10° NNW 23:22:52 29° NNE 23:23:52 27° NE
ALOS 2 4.3 23:35:59 28° NNE 23:35:59 28° NNE 23:38:23 10° N
Cosmos 2278 Rocket 4.1 23:31:18 10° W 23:36:09 28° NNW 23:41:02 10° NNE
H-2A R/B 3.7 23:38:24 26° WSW 23:38:58 27° W 23:43:27 10° NW
CZ-3B DEB 3.8 23:34:27 10° W 23:36:35 20° W 23:36:35 20° W
Cosmos 1464 Rocket 4.1 23:43:26 67° NE 23:43:26 67° NE 23:48:53 10° NNE
Terra 3.4 23:47:39 28° WNW 23:47:39 28° WNW 23:51:06 10° NNW
